| time (UTC) | temp C | wind direction | speed KPH | gust KPH | rain 1hr cm | rain 24hr cm | rain mn cm | humidity % | barometer mb |
| 20260506202548 | 15 | 249 | 30.6 | 40.2 | 0.00 | 0.00 | 0.00 | 88 | 1010.2 |
| 20260506202045 | 15 | 260 | 30.6 | 41.8 | 0.00 | 0.00 | 0.00 | 87 | 1010.3 |
| 20260506201545 | 15 | 253 | 29.0 | 45.1 | 0.00 | 0.00 | 0.00 | 87 | 1010.2 |
| 20260506201048 | 15 | 250 | 37.0 | 46.7 | 0.00 | 0.00 | 0.00 | 86 | 1010.3 |
| 20260506200543 | 15 | 252 | 30.6 | 46.7 | 0.00 | 0.00 | 0.00 | 87 | 1010.3 |
| 20260506200112 | 15 | 249 | 30.6 | 46.7 | 0.00 | 0.00 | 0.00 | 87 | 1010.4 |
| 20260506195542 | 15 | 260 | 32.2 | 46.7 | 0.00 | 0.00 | 0.00 | 88 | 1010.5 |
| 20260506195041 | 15 | 252 | 27.4 | 40.2 | 0.00 | 0.00 | 0.00 | 87 | 1010.5 |
| 20260506194541 | 15 | 263 | 27.4 | 40.2 | 0.00 | 0.00 | 0.00 | 87 | 1010.7 |
| 20260506194041 | 15 | 278 | 29.0 | 41.8 | 0.00 | 0.00 | 0.00 | 87 | 1010.9 |
| 20260506193542 | 15 | 250 | 29.0 | 41.8 | 0.00 | 0.00 | 0.00 | 88 | 1010.9 |
| 20260506193042 | 15 | 272 | 27.4 | 46.7 | 0.00 | 0.00 | 0.00 | 88 | 1011.2 |
| 20260506192539 | 15 | 269 | 30.6 | 46.7 | 0.00 | 0.00 | 0.00 | 88 | 1011.1 |
| 20260506192039 | 15 | 257 | 24.1 | 43.5 | 0.00 | 0.00 | 0.00 | 88 | 1011.2 |
| 20260506191539 | 15 | 255 | 27.4 | 43.5 | 0.00 | 0.00 | 0.00 | 88 | 1011.3 |
| 20260506191038 | 15 | 257 | 27.4 | 40.2 | 0.00 | 0.00 | 0.00 | 89 | 1011.1 |
| 20260506190538 | 15 | 242 | 25.7 | 33.8 | 0.00 | 0.00 | 0.00 | 89 | 1011.2 |
| 20260506190036 | 15 | 250 | 20.9 | 37.0 | 0.00 | 0.00 | 0.00 | 89 | 1011.4 |
| 20260506185538 | 14 | 238 | 24.1 | 45.1 | 0.00 | 0.00 | 0.00 | 89 | 1011.3 |
| 20260506185039 | 14 | 257 | 32.2 | 56.3 | 0.00 | 0.00 | 0.00 | 88 | 1011.3 |
| 20260506184535 | 14 | 252 | 37.0 | 56.3 | 0.00 | 0.00 | 0.00 | 88 | 1011.2 |
| 20260506184036 | 14 | 247 | 38.6 | 56.3 | 0.00 | 0.00 | 0.00 | 88 | 1011.4 |
| 20260506183535 | 14 | 255 | 38.6 | 56.3 | 0.00 | 0.00 | 0.00 | 87 | 1011.6 |
| 20260506183035 | 14 | 264 | 41.8 | 51.5 | 0.00 | 0.00 | 0.00 | 87 | 1011.4 |
| 20260506182533 | 14 | 257 | 35.4 | 48.3 | 0.00 | 0.00 | 0.00 | 88 | 1011.8 |
| 20260506182033 | 14 | 260 | 32.2 | 51.5 | 0.00 | 0.00 | 0.00 | 88 | 1011.8 |
| 20260506181536 | 14 | 257 | 32.2 | 54.7 | 0.00 | 0.00 | 0.00 | 88 | 1011.9 |
| 20260506181032 | 14 | 257 | 35.4 | 54.7 | 0.00 | 0.00 | 0.00 | 87 | 1012.1 |
| 20260506180532 | 14 | 262 | 33.8 | 57.9 | 0.00 | 0.00 | 0.00 | 87 | 1012.1 |
| 20260506180038 | 15 | 255 | 35.4 | 66.0 | 0.00 | 0.00 | 0.00 | 86 | 1012.3 |
| 20260506175530 | 15 | 266 | 48.3 | 66.0 | 0.00 | 0.00 | 0.00 | 84 | 1012.3 |
| 20260506175028 | 15 | 259 | 40.2 | 59.5 | 0.00 | 0.00 | 0.00 | 84 | 1012.4 |
| 20260506174530 | 15 | 274 | 45.1 | 59.5 | 0.00 | 0.00 | 0.00 | 83 | 1012.5 |
| 20260506174028 | 15 | 245 | 43.5 | 59.5 | 0.00 | 0.00 | 0.00 | 83 | 1012.3 |
| 20260506173529 | 15 | 257 | 40.2 | 54.7 | 0.00 | 0.00 | 0.00 | 83 | 1012.5 |
| 20260506173028 | 15 | 248 | 37.0 | 51.5 | 0.00 | 0.00 | 0.00 | 82 | 1012.4 |
| 20260506172527 | 16 | 269 | 33.8 | 45.1 | 0.00 | 0.00 | 0.00 | 82 | 1012.5 |
| 20260506172030 | 16 | 250 | 29.0 | 45.1 | 0.00 | 0.00 | 0.00 | 82 | 1012.7 |
| 20260506171543 | 16 | 271 | 25.7 | 46.7 | 0.00 | 0.00 | 0.00 | 82 | 1012.7 |
| 20260506171026 | 16 | 254 | 37.0 | 53.1 | 0.00 | 0.00 | 0.00 | 82 | 1012.6 |
| 20260506170525 | 16 | 259 | 40.2 | 56.3 | 0.00 | 0.00 | 0.00 | 82 | 1012.8 |
| 20260506170025 | 16 | 245 | 37.0 | 59.5 | 0.00 | 0.00 | 0.00 | 82 | 1012.8 |
| 20260506165525 | 16 | 260 | 38.6 | 59.5 | 0.00 | 0.00 | 0.00 | 82 | 1012.7 |
| 20260506165025 | 16 | 245 | 32.2 | 56.3 | 0.00 | 0.00 | 0.00 | 82 | 1012.9 |
| 20260506164524 | 16 | 248 | 41.8 | 56.3 | 0.00 | 0.00 | 0.00 | 82 | 1012.9 |
| 20260506164024 | 16 | 259 | 43.5 | 62.8 | 0.00 | 0.00 | 0.00 | 81 | 1012.7 |
| 20260506163524 | 16 | 248 | 43.5 | 62.8 | 0.00 | 0.00 | 0.00 | 81 | 1012.7 |
| 20260506163028 | 16 | 248 | 37.0 | 61.2 | 0.00 | 0.00 | 0.00 | 82 | 1012.7 |
| 20260506162524 | 16 | 253 | 45.1 | 66.0 | 0.00 | 0.00 | 0.00 | 82 | 1012.8 |
| 20260506162023 | 16 | 252 | 51.5 | 66.0 | 0.00 | 0.00 | 0.00 | 81 | 1012.7 |
| 20260506161535 | 16 | 249 | 43.5 | 59.5 | 0.00 | 0.00 | 0.00 | 81 | 1013.0 |
| 20260506161022 | 16 | 271 | 43.5 | 59.5 | 0.00 | 0.00 | 0.00 | 81 | 1013.2 |
| 20260506160524 | 16 | 248 | 45.1 | 67.6 | 0.00 | 0.00 | 0.00 | 81 | 1013.3 |
| 20260506160020 | 16 | 250 | 48.3 | 67.6 | 0.00 | 0.00 | 0.00 | 82 | 1013.2 |
| 20260506155520 | 16 | 240 | 40.2 | 59.5 | 0.00 | 0.00 | 0.00 | 82 | 1013.4 |
| 20260506155020 | 16 | 262 | 41.8 | 59.5 | 0.00 | 0.00 | 0.00 | 82 | 1013.3 |
| 20260506154520 | 15 | 249 | 48.3 | 59.5 | 0.00 | 0.00 | 0.00 | 82 | 1013.3 |
| 20260506154020 | 15 | 256 | 45.1 | 59.5 | 0.00 | 0.00 | 0.00 | 82 | 1013.4 |
| 20260506153520 | 15 | 259 | 46.7 | 57.9 | 0.00 | 0.00 | 0.00 | 82 | 1013.4 |
| 20260506153020 | 15 | 248 | 43.5 | 62.8 | 0.00 | 0.00 | 0.00 | 82 | 1013.3 |
| 20260506152519 | 15 | 242 | 48.3 | 64.4 | 0.00 | 0.00 | 0.00 | 83 | 1013.2 |
| 20260506152019 | 15 | 251 | 48.3 | 64.4 | 0.00 | 0.00 | 0.00 | 82 | 1013.3 |
| 20260506151519 | 16 | 246 | 41.8 | 62.8 | 0.00 | 0.00 | 0.00 | 82 | 1013.6 |
| 20260506151018 | 16 | 265 | 48.3 | 62.8 | 0.00 | 0.00 | 0.00 | 81 | 1013.6 |
| 20260506150518 | 16 | 260 | 46.7 | 59.5 | 0.00 | 0.00 | 0.00 | 82 | 1013.4 |
| 20260506150023 | 16 | 236 | 45.1 | 64.4 | 0.00 | 0.00 | 0.00 | 82 | 1013.5 |
| 20260506145517 | 15 | 268 | 46.7 | 64.4 | 0.00 | 0.00 | 0.00 | 82 | 1013.5 |
| 20260506145017 | 15 | 245 | 46.7 | 59.5 | 0.00 | 0.00 | 0.00 | 83 | 1013.4 |
| 20260506144516 | 15 | 259 | 41.8 | 61.2 | 0.00 | 0.00 | 0.00 | 83 | 1013.6 |
| 20260506144016 | 15 | 256 | 43.5 | 61.2 | 0.00 | 0.00 | 0.00 | 84 | 1013.5 |
| 20260506143516 | 15 | 251 | 41.8 | 57.9 | 0.00 | 0.00 | 0.00 | 83 | 1013.7 |
| 20260506143016 | 15 | 252 | 40.2 | 59.5 | 0.00 | 0.00 | 0.00 | 83 | 1013.8 |
| 20260506142516 | 15 | 252 | 38.6 | 59.5 | 0.00 | 0.00 | 0.00 | 83 | 1013.9 |
| 20260506142015 | 15 | 255 | 41.8 | 59.5 | 0.00 | 0.00 | 0.00 | 83 | 1013.7 |
| 20260506141515 | 15 | 249 | 40.2 | 59.5 | 0.00 | 0.00 | 0.00 | 83 | 1013.7 |
| 20260506141015 | 15 | 252 | 40.2 | 66.0 | 0.00 | 0.00 | 0.00 | 83 | 1013.7 |
| 20260506140515 | 15 | 258 | 40.2 | 66.0 | 0.00 | 0.00 | 0.00 | 83 | 1013.5 |
| 20260506140016 | 15 | 262 | 45.1 | 66.0 | 0.00 | 0.00 | 0.00 | 83 | 1013.6 |
| 20260506135514 | 15 | 259 | 43.5 | 66.0 | 0.00 | 0.00 | 0.00 | 83 | 1013.6 |
| 20260506135024 | 15 | 265 | 40.2 | 59.5 | 0.00 | 0.00 | 0.00 | 83 | 1013.6 |
| 20260506134526 | 15 | 244 | 43.5 | 59.5 | 0.00 | 0.00 | 0.00 | 82 | 1013.4 |
| 20260506134013 | 15 | 240 | 37.0 | 59.5 | 0.00 | 0.00 | 0.00 | 82 | 1013.7 |
| 20260506133511 | 15 | 252 | 38.6 | 54.7 | 0.00 | 0.00 | 0.00 | 83 | 1013.5 |
| 20260506133012 | 15 | 237 | 40.2 | 54.7 | 0.00 | 0.00 | 0.00 | 84 | 1013.6 |
| 20260506132510 | 15 | 256 | 41.8 | 53.1 | 0.00 | 0.00 | 0.00 | 85 | 1013.4 |
| 20260506132010 | 15 | 266 | 41.8 | 53.1 | 0.00 | 0.00 | 0.00 | 84 | 1013.5 |
| 20260506131510 | 15 | 243 | 35.4 | 56.3 | 0.00 | 0.00 | 0.00 | 84 | 1013.6 |
| 20260506131010 | 15 | 248 | 33.8 | 61.2 | 0.00 | 0.00 | 0.00 | 84 | 1013.9 |
| 20260506130509 | 15 | 261 | 38.6 | 61.2 | 0.00 | 0.00 | 0.00 | 84 | 1013.9 |
| 20260506130010 | 15 | 252 | 37.0 | 53.1 | 0.00 | 0.00 | 0.00 | 84 | 1014.0 |
| 20260506125509 | 15 | 238 | 32.2 | 53.1 | 0.00 | 0.00 | 0.00 | 85 | 1014.0 |
| 20260506125008 | 15 | 255 | 40.2 | 56.3 | 0.00 | 0.00 | 0.00 | 84 | 1014.0 |
| 20260506124513 | 15 | 252 | 43.5 | 57.9 | 0.00 | 0.00 | 0.00 | 84 | 1013.9 |
| 20260506124008 | 15 | 247 | 40.2 | 57.9 | 0.00 | 0.00 | 0.00 | 85 | 1013.9 |
| 20260506123508 | 15 | 245 | 38.6 | 57.9 | 0.00 | 0.00 | 0.00 | 85 | 1013.9 |
| 20260506123007 | 15 | 258 | 45.1 | 57.9 | 0.00 | 0.00 | 0.00 | 85 | 1014.0 |
| 20260506122508 | 15 | 250 | 41.8 | 59.5 | 0.00 | 0.00 | 0.00 | 85 | 1013.8 |
| 20260506122007 | 15 | 255 | 43.5 | 59.5 | 0.00 | 0.00 | 0.00 | 85 | 1013.7 |
| 20260506121509 | 14 | 260 | 37.0 | 59.5 | 0.00 | 0.00 | 0.00 | 86 | 1013.9 |
| 20260506121006 | 14 | 244 | 37.0 | 56.3 | 0.00 | 0.00 | 0.00 | 86 | 1013.9 |
| 20260506120505 | 14 | 255 | 38.6 | 54.7 | 0.00 | 0.00 | 0.00 | 86 | 1013.9 |
| 20260506120010 | 14 | 250 | 41.8 | 54.7 | 0.00 | 0.00 | 0.00 | 86 | 1013.9 |
| 20260506115505 | 14 | 256 | 37.0 | 57.9 | 0.00 | 0.00 | 0.00 | 86 | 1013.9 |
| 20260506115004 | 14 | 250 | 43.5 | 57.9 | 0.00 | 0.00 | 0.00 | 87 | 1013.9 |
| 20260506114508 | 14 | 256 | 43.5 | 54.7 | 0.00 | 0.00 | 0.00 | 86 | 1013.9 |
| 20260506114005 | 14 | 246 | 35.4 | 48.3 | 0.00 | 0.00 | 0.00 | 87 | 1014.0 |
| 20260506113505 | 14 | 254 | 38.6 | 53.1 | 0.00 | 0.00 | 0.00 | 87 | 1013.8 |
| 20260506113006 | 14 | 252 | 35.4 | 53.1 | 0.00 | 0.00 | 0.00 | 87 | 1014.0 |
| 20260506112505 | 14 | 246 | 35.4 | 51.5 | 0.00 | 0.00 | 0.00 | 87 | 1014.0 |
| 20260506112004 | 14 | 245 | 40.2 | 51.5 | 0.00 | 0.00 | 0.00 | 87 | 1013.9 |
| 20260506111504 | 13 | 248 | 40.2 | 54.7 | 0.00 | 0.00 | 0.00 | 87 | 1013.9 |
| 20260506111004 | 13 | 247 | 45.1 | 56.3 | 0.00 | 0.00 | 0.00 | 88 | 1013.9 |
| 20260506110504 | 13 | 254 | 41.8 | 56.3 | 0.00 | 0.00 | 0.00 | 88 | 1014.0 |
| 20260506110009 | 13 | 267 | 37.0 | 54.7 | 0.00 | 0.00 | 0.00 | 88 | 1014.0 |
| 20260506105503 | 13 | 256 | 43.5 | 54.7 | 0.00 | 0.00 | 0.00 | 88 | 1013.9 |
| 20260506105003 | 13 | 261 | 41.8 | 53.1 | 0.00 | 0.00 | 0.00 | 88 | 1014.0 |
| 20260506104503 | 13 | 248 | 33.8 | 57.9 | 0.00 | 0.00 | 0.00 | 88 | 1014.0 |
| 20260506104002 | 13 | 244 | 41.8 | 57.9 | 0.00 | 0.00 | 0.00 | 88 | 1013.9 |
| 20260506103502 | 13 | 253 | 40.2 | 56.3 | 0.00 | 0.00 | 0.00 | 88 | 1013.8 |
| 20260506103007 | 13 | 263 | 43.5 | 57.9 | 0.00 | 0.00 | 0.00 | 88 | 1013.9 |
| 20260506102502 | 13 | 253 | 46.7 | 57.9 | 0.00 | 0.00 | 0.00 | 88 | 1013.8 |
| 20260506102101 | 13 | 247 | 43.5 | 56.3 | 0.00 | 0.00 | 0.00 | 88 | 1013.7 |
| 20260506101600 | 13 | 255 | 43.5 | 56.3 | 0.00 | 0.00 | 0.00 | 88 | 1013.6 |
| 20260506101059 | 13 | 248 | 40.2 | 56.3 | 0.00 | 0.00 | 0.00 | 88 | 1013.7 |
| 20260506100558 | 13 | 239 | 41.8 | 53.1 | 0.00 | 0.00 | 0.00 | 89 | 1013.5 |
| 20260506100104 | 13 | 249 | 41.8 | 51.5 | 0.00 | 0.00 | 0.00 | 89 | 1013.7 |
| 20260506095558 | 13 | 253 | 37.0 | 49.9 | 0.00 | 0.00 | 0.00 | 89 | 1013.6 |
| 20260506095058 | 13 | 241 | 37.0 | 56.3 | 0.00 | 0.00 | 0.00 | 89 | 1013.6 |
| 20260506094557 | 13 | 258 | 37.0 | 56.3 | 0.00 | 0.00 | 0.00 | 89 | 1013.6 |
| 20260506094057 | 13 | 259 | 41.8 | 54.7 | 0.00 | 0.00 | 0.00 | 89 | 1013.6 |
| 20260506093559 | 13 | 246 | 40.2 | 57.9 | 0.00 | 0.00 | 0.00 | 88 | 1013.7 |
| 20260506093058 | 13 | 240 | 45.1 | 57.9 | 0.00 | 0.00 | 0.00 | 89 | 1013.8 |
| 20260506092552 | 13 | 250 | 37.0 | 53.1 | 0.00 | 0.00 | 0.00 | 88 | 1013.7 |
| 20260506092053 | 13 | 264 | 38.6 | 56.3 | 0.00 | 0.00 | 0.00 | 89 | 1013.3 |
| 20260506091551 | 13 | 255 | 40.2 | 57.9 | 0.00 | 0.00 | 0.00 | 88 | 1013.4 |
| 20260506091051 | 13 | 242 | 45.1 | 57.9 | 0.00 | 0.00 | 0.00 | 88 | 1013.5 |
| 20260506090551 | 13 | 242 | 45.1 | 57.9 | 0.00 | 0.00 | 0.00 | 88 | 1013.5 |
| 20260506090050 | 13 | 248 | 40.2 | 54.7 | 0.00 | 0.00 | 0.00 | 89 | 1013.7 |
| 20260506085548 | 13 | 250 | 38.6 | 54.7 | 0.00 | 0.00 | 0.00 | 89 | 1013.9 |
| 20260506085048 | 13 | 249 | 38.6 | 54.7 | 0.00 | 0.00 | 0.00 | 89 | 1013.9 |
| 20260506084548 | 13 | 252 | 35.4 | 51.5 | 0.00 | 0.00 | 0.00 | 89 | 1013.9 |
| 20260506084049 | 13 | 253 | 38.6 | 54.7 | 0.00 | 0.00 | 0.00 | 89 | 1014.0 |
| 20260506083547 | 13 | 252 | 41.8 | 54.7 | 0.00 | 0.00 | 0.00 | 89 | 1014.0 |
| 20260506083107 | 13 | 241 | 32.2 | 51.5 | 0.00 | 0.00 | 0.00 | 89 | 1014.0 |
| 20260506082546 | 13 | 242 | 38.6 | 54.7 | 0.00 | 0.00 | 0.00 | 89 | 1014.0 |
| 20260506082048 | 13 | 253 | 41.8 | 54.7 | 0.00 | 0.00 | 0.00 | 88 | 1013.7 |
| 20260506081549 | 13 | 246 | 41.8 | 56.3 | 0.00 | 0.00 | 0.00 | 88 | 1013.7 |
| 20260506081045 | 13 | 258 | 40.2 | 59.5 | 0.00 | 0.00 | 0.00 | 88 | 1013.9 |
| 20260506080545 | 14 | 258 | 45.1 | 59.5 | 0.00 | 0.00 | 0.00 | 88 | 1013.9 |
| 20260506073043 | 14 | 258 | 43.5 | 61.2 | 0.00 | 0.00 | 0.00 | 86 | 1014.1 |
| 20260506072540 | 14 | 252 | 40.2 | 59.5 | 0.00 | 0.00 | 0.00 | 86 | 1014.1 |
| 20260506072040 | 14 | 252 | 41.8 | 57.9 | 0.00 | 0.00 | 0.00 | 86 | 1014.0 |
| 20260506071540 | 14 | 251 | 45.1 | 64.4 | 0.00 | 0.00 | 0.00 | 86 | 1014.0 |
| 20260506071039 | 14 | 276 | 43.5 | 64.4 | 0.00 | 0.00 | 0.00 | 86 | 1013.9 |
| 20260506070539 | 14 | 249 | 45.1 | 59.5 | 0.00 | 0.00 | 0.00 | 86 | 1014.0 |
| 20260506062035 | 14 | 242 | 45.1 | 57.9 | 0.00 | 0.00 | 0.00 | 86 | 1014.0 |
| 20260506061539 | 14 | 252 | 41.8 | 57.9 | 0.00 | 0.00 | 0.00 | 86 | 1014.0 |
| 20260506061035 | 14 | 248 | 46.7 | 62.8 | 0.00 | 0.00 | 0.00 | 86 | 1014.0 |
| 20260506060532 | 14 | 255 | 41.8 | 66.0 | 0.00 | 0.00 | 0.00 | 86 | 1014.0 |
| 20260506051027 | 14 | 245 | 43.5 | 62.8 | 0.00 | 0.00 | 0.00 | 85 | 1014.3 |
| 20260506050527 | 14 | 245 | 45.1 | 61.2 | 0.00 | 0.00 | 0.00 | 85 | 1014.3 |
| 20260506045024 | 14 | 253 | 45.1 | 62.8 | 0.00 | 0.00 | 0.00 | 85 | 1014.4 |
| 20260506044523 | 14 | 255 | 40.2 | 61.2 | 0.00 | 0.00 | 0.00 | 85 | 1014.4 |
| 20260506044027 | 15 | 248 | 48.3 | 61.2 | 0.00 | 0.00 | 0.00 | 85 | 1014.3 |
| 20260506043520 | 15 | 243 | 40.2 | 61.2 | 0.00 | 0.00 | 0.00 | 84 | 1014.5 |
| 20260506043020 | 15 | 250 | 45.1 | 64.4 | 0.00 | 0.00 | 0.00 | 84 | 1014.5 |
| 20260506042520 | 15 | 240 | 51.5 | 64.4 | 0.00 | 0.00 | 0.00 | 84 | 1014.4 |
| 20260506042019 | 15 | 247 | 45.1 | 61.2 | 0.00 | 0.00 | 0.00 | 84 | 1014.4 |
| 20260506041518 | 15 | 251 | 43.5 | 61.2 | 0.00 | 0.00 | 0.00 | 84 | 1014.3 |
| 20260506041017 | 15 | 248 | 43.5 | 67.6 | 0.00 | 0.00 | 0.00 | 84 | 1014.4 |
| 20260506040519 | 15 | 247 | 41.8 | 67.6 | 0.00 | 0.00 | 0.00 | 83 | 1014.4 |
| 20260506040018 | 15 | 250 | 46.7 | 61.2 | 0.00 | 0.00 | 0.00 | 83 | 1014.5 |
| 20260506035514 | 15 | 264 | 41.8 | 56.3 | 0.00 | 0.00 | 0.00 | 83 | 1014.5 |
| 20260506035014 | 15 | 249 | 41.8 | 62.8 | 0.00 | 0.00 | 0.00 | 82 | 1014.5 |
| 20260506034514 | 15 | 244 | 43.5 | 62.8 | 0.00 | 0.00 | 0.00 | 82 | 1014.4 |
| 20260506034013 | 15 | 255 | 45.1 | 59.5 | 0.00 | 0.00 | 0.00 | 81 | 1014.3 |
| 20260506033512 | 15 | 247 | 41.8 | 62.8 | 0.00 | 0.00 | 0.00 | 80 | 1014.5 |
| 20260506033015 | 15 | 260 | 46.7 | 62.8 | 0.00 | 0.00 | 0.00 | 80 | 1014.4 |
| 20260506032512 | 15 | 233 | 41.8 | 62.8 | 0.00 | 0.00 | 0.00 | 80 | 1014.3 |
| 20260506032012 | 15 | 250 | 38.6 | 66.0 | 0.00 | 0.00 | 0.00 | 80 | 1014.4 |
| 20260506031514 | 15 | 252 | 45.1 | 61.2 | 0.00 | 0.00 | 0.00 | 80 | 1014.3 |
| 20260506031013 | 15 | 252 | 43.5 | 61.2 | 0.00 | 0.00 | 0.00 | 80 | 1014.2 |
| 20260506030514 | 15 | 256 | 43.5 | 56.3 | 0.00 | 0.00 | 0.00 | 80 | 1014.3 |
| 20260506030014 | 15 | 249 | 37.0 | 56.3 | 0.00 | 0.00 | 0.00 | 80 | 1014.5 |
| 20260506025511 | 15 | 255 | 38.6 | 57.9 | 0.00 | 0.00 | 0.00 | 80 | 1014.3 |
| 20260506025011 | 15 | 269 | 43.5 | 57.9 | 0.00 | 0.00 | 0.00 | 80 | 1014.4 |
| 20260506024526 | 15 | 251 | 38.6 | 56.3 | 0.00 | 0.00 | 0.00 | 80 | 1014.3 |
| 20260506024011 | 15 | 245 | 41.8 | 56.3 | 0.00 | 0.00 | 0.00 | 80 | 1014.3 |
| 20260506023511 | 15 | 272 | 38.6 | 59.5 | 0.00 | 0.00 | 0.00 | 79 | 1014.3 |
| 20260506023011 | 15 | 248 | 41.8 | 59.5 | 0.00 | 0.00 | 0.00 | 79 | 1014.3 |
| 20260506022510 | 15 | 238 | 41.8 | 54.7 | 0.00 | 0.00 | 0.00 | 80 | 1014.2 |
| 20260506022014 | 15 | 256 | 38.6 | 54.7 | 0.00 | 0.00 | 0.00 | 79 | 1014.4 |
| 20260506021511 | 15 | 257 | 43.5 | 61.2 | 0.00 | 0.00 | 0.00 | 78 | 1014.3 |
| 20260506021010 | 15 | 257 | 41.8 | 61.2 | 0.00 | 0.00 | 0.00 | 78 | 1014.4 |
| 20260506020510 | 15 | 258 | 35.4 | 56.3 | 0.00 | 0.00 | 0.00 | 78 | 1014.2 |
| 20260506020009 | 15 | 248 | 40.2 | 57.9 | 0.00 | 0.00 | 0.00 | 77 | 1014.2 |
| 20260506015513 | 15 | 257 | 40.2 | 57.9 | 0.00 | 0.00 | 0.00 | 77 | 1014.1 |
| 20260506015011 | 15 | 261 | 40.2 | 61.2 | 0.00 | 0.00 | 0.00 | 77 | 1014.2 |
| 20260506014513 | 15 | 259 | 41.8 | 61.2 | 0.00 | 0.00 | 0.00 | 77 | 1014.1 |
| 20260506014007 | 15 | 253 | 38.6 | 59.5 | 0.00 | 0.00 | 0.00 | 77 | 1014.1 |
| 20260506013507 | 15 | 246 | 43.5 | 59.5 | 0.00 | 0.00 | 0.00 | 76 | 1014.0 |
| 20260506013007 | 15 | 257 | 38.6 | 59.5 | 0.00 | 0.00 | 0.00 | 76 | 1014.0 |
| 20260506012507 | 16 | 253 | 43.5 | 59.5 | 0.00 | 0.00 | 0.00 | 76 | 1013.9 |
| 20260506012007 | 16 | 260 | 41.8 | 70.8 | 0.00 | 0.00 | 0.00 | 76 | 1013.8 |
| 20260506011508 | 16 | 252 | 46.7 | 70.8 | 0.00 | 0.00 | 0.00 | 75 | 1013.9 |
| 20260506011005 | 15 | 257 | 41.8 | 59.5 | 0.00 | 0.00 | 0.00 | 76 | 1013.7 |
| 20260506010511 | 15 | 255 | 46.7 | 62.8 | 0.00 | 0.00 | 0.00 | 76 | 1013.6 |
| 20260506010005 | 15 | 255 | 43.5 | 64.4 | 0.00 | 0.00 | 0.00 | 76 | 1013.6 |
| 20260506005505 | 15 | 260 | 41.8 | 67.6 | 0.00 | 0.00 | 0.00 | 76 | 1013.7 |
| 20260506005004 | 15 | 250 | 48.3 | 67.6 | 0.00 | 0.00 | 0.00 | 75 | 1013.6 |
| 20260506004506 | 15 | 248 | 48.3 | 67.6 | 0.00 | 0.00 | 0.00 | 76 | 1013.5 |
| 20260506004005 | 15 | 253 | 45.1 | 66.0 | 0.00 | 0.00 | 0.00 | 76 | 1013.4 |
| 20260506003504 | 15 | 263 | 43.5 | 61.2 | 0.00 | 0.00 | 0.00 | 76 | 1013.3 |
| 20260506003005 | 15 | 258 | 45.1 | 61.2 | 0.00 | 0.00 | 0.00 | 76 | 1013.1 |
| 20260506002504 | 15 | 256 | 45.1 | 62.8 | 0.00 | 0.00 | 0.00 | 76 | 1012.9 |
| 20260506002005 | 15 | 246 | 43.5 | 64.4 | 0.00 | 0.00 | 0.00 | 76 | 1012.9 |
| 20260506001505 | 15 | 252 | 48.3 | 72.4 | 0.00 | 0.00 | 0.00 | 75 | 1012.6 |
| 20260506001004 | 15 | 254 | 43.5 | 64.4 | 0.00 | 0.00 | 0.00 | 76 | 1012.6 |
| 20260506000506 | 15 | 264 | 45.1 | 64.4 | 0.00 | 0.00 | 0.00 | 76 | 1012.5 |
| 20260506000003 | 15 | 257 | 45.1 | 66.0 | 0.00 | 0.00 | 0.00 | 76 | 1012.6 |
| 20260505235504 | 15 | 256 | 49.9 | 66.0 | 0.00 | 0.00 | 0.00 | 76 | 1012.3 |
| 20260505235003 | 15 | 258 | 46.7 | 66.0 | 0.00 | 0.00 | 0.00 | 77 | 1012.3 |
| 20260505234503 | 15 | 258 | 40.2 | 66.0 | 0.00 | 0.00 | 0.00 | 77 | 1012.5 |
| 20260505234005 | 15 | 265 | 45.1 | 67.6 | 0.00 | 0.00 | 0.00 | 77 | 1012.3 |
| 20260505233503 | 15 | 250 | 51.5 | 67.6 | 0.00 | 0.00 | 0.00 | 77 | 1012.3 |
| 20260505233002 | 15 | 253 | 45.1 | 62.8 | 0.00 | 0.00 | 0.00 | 78 | 1012.4 |
| 20260505232505 | 15 | 256 | 45.1 | 62.8 | 0.00 | 0.00 | 0.00 | 78 | 1012.4 |
| 20260505232002 | 15 | 251 | 45.1 | 59.5 | 0.00 | 0.00 | 0.00 | 78 | 1012.6 |
| 20260505231504 | 15 | 257 | 43.5 | 61.2 | 0.00 | 0.00 | 0.00 | 78 | 1012.6 |
| 20260505231001 | 15 | 243 | 43.5 | 61.2 | 0.00 | 0.00 | 0.00 | 77 | 1012.5 |
| 20260505230500 | 15 | 252 | 41.8 | 57.9 | 0.00 | 0.00 | 0.00 | 77 | 1012.4 |
| 20260505230003 | 15 | 262 | 41.8 | 57.9 | 0.00 | 0.00 | 0.00 | 78 | 1012.4 |
| 20260505225604 | 15 | 245 | 38.6 | 61.2 | 0.00 | 0.00 | 0.00 | 78 | 1012.4 |
| 20260505225101 | 15 | 247 | 45.1 | 61.2 | 0.00 | 0.00 | 0.00 | 77 | 1012.4 |
| 20260505224601 | 15 | 250 | 46.7 | 61.2 | 0.00 | 0.00 | 0.00 | 77 | 1012.3 |
| 20260505224103 | 15 | 248 | 45.1 | 59.5 | 0.00 | 0.00 | 0.00 | 77 | 1012.3 |
| 20260505223603 | 15 | 236 | 46.7 | 72.4 | 0.00 | 0.00 | 0.00 | 77 | 1012.2 |
| 20260505223104 | 15 | 243 | 49.9 | 72.4 | 0.00 | 0.00 | 0.00 | 76 | 1012.3 |
| 20260505222603 | 15 | 248 | 46.7 | 66.0 | 0.00 | 0.00 | 0.00 | 76 | 1012.3 |
| 20260505222100 | 15 | 267 | 41.8 | 56.3 | 0.00 | 0.00 | 0.00 | 76 | 1012.3 |
| 20260505221603 | 15 | 256 | 38.6 | 59.5 | 0.00 | 0.00 | 0.00 | 76 | 1012.2 |
| 20260505221059 | 15 | 255 | 37.0 | 59.5 | 0.00 | 0.00 | 0.00 | 76 | 1012.0 |
| 20260505220600 | 15 | 265 | 40.2 | 61.2 | 0.00 | 0.00 | 0.00 | 76 | 1012.0 |
| 20260505220100 | 15 | 256 | 48.3 | 61.2 | 0.00 | 0.00 | 0.00 | 75 | 1012.0 |
| 20260505215558 | 15 | 253 | 40.2 | 62.8 | 0.00 | 0.00 | 0.00 | 75 | 1012.1 |
| 20260505215058 | 15 | 269 | 41.8 | 62.8 | 0.00 | 0.00 | 0.00 | 75 | 1012.2 |
| 20260505214558 | 15 | 249 | 37.0 | 54.7 | 0.00 | 0.00 | 0.00 | 75 | 1012.2 |
| 20260505214100 | 15 | 250 | 35.4 | 51.5 | 0.00 | 0.00 | 0.00 | 75 | 1012.3 |
| 20260505213558 | 15 | 249 | 37.0 | 53.1 | 0.00 | 0.00 | 0.00 | 74 | 1012.3 |
| 20260505213057 | 16 | 248 | 37.0 | 53.1 | 0.00 | 0.00 | 0.00 | 74 | 1012.3 |
| 20260505212601 | 16 | 239 | 30.6 | 41.8 | 0.00 | 0.00 | 0.00 | 74 | 1012.2 |
| 20260505212057 | 16 | 266 | 32.2 | 41.8 | 0.00 | 0.00 | 0.00 | 73 | 1012.2 |
| 20260505211557 | 16 | 247 | 27.4 | 38.6 | 0.00 | 0.00 | 0.00 | 74 | 1012.2 |
| 20260505211056 | 16 | 243 | 24.1 | 37.0 | 0.00 | 0.00 | 0.00 | 74 | 1012.1 |
| 20260505210556 | 16 | 268 | 24.1 | 40.2 | 0.00 | 0.00 | 0.00 | 74 | 1012.1 |
| 20260505210056 | 16 | 268 | 25.7 | 37.0 | 0.00 | 0.00 | 0.00 | 74 | 1012.2 |
| 20260505205556 | 16 | 243 | 25.7 | 35.4 | 0.00 | 0.00 | 0.00 | 74 | 1012.2 |
| 20260505205056 | 16 | 255 | 20.9 | 30.6 | 0.00 | 0.00 | 0.00 | 77 | 1012.1 |
| 20260505204601 | 15 | 241 | 17.7 | 25.7 | 0.00 | 0.00 | 0.00 | 78 | 1012.3 |
| 20260505204056 | 15 | 240 | 20.9 | 30.6 | 0.00 | 0.00 | 0.00 | 77 | 1012.1 |
| 20260505203555 | 15 | 232 | 25.7 | 30.6 | 0.00 | 0.00 | 0.00 | 77 | 1012.1 |
| 20260505203101 | 15 | 233 | 25.7 | 30.6 | 0.00 | 0.00 | 0.00 | 77 | 1012.1 |